Stations météo

Publicité
Montauban, France (7540): Température de l'air & dewpoint: 22.05.2018 11:00:00 - 28.05.2018 11:00:00 (CEST)Montauban, France (7540): Température de l'air 5cm: 22.05.2018 11:00:00 - 28.05.2018 11:00:00 (CEST)Montauban, France (7540): Température de l'air -20cm & Température de l'air -100cm: 22.05.2018 11:00:00 - 28.05.2018 11:00:00 (CEST)Montauban, France (7540): Vitesse du vent & gusts: 22.05.2018 11:00:00 - 28.05.2018 11:00:00 (CEST)Montauban, France (7540): Direction du vent: 22.05.2018 11:00:00 - 28.05.2018 11:00:00 (CEST)Montauban, France (7540): reduced air pressure: 22.05.2018 11:00:00 - 28.05.2018 11:00:00 (CEST)Montauban, France (7540): visibility: 22.05.2018 11:00:00 - 28.05.2018 11:00:00 (CEST)Montauban, France (7540): Ensoleillement: 22.05.2018 11:00:00 - 28.05.2018 11:00:00 (CEST)Montauban, France (7540): Quantités de précipitations: 22.05.2018 11:00:00 - 28.05.2018 11:00:00 (CEST)
Date & Time tt [°C] td [°C] tt 5cm [°C] tt -20cm [°C] tt -100cm [°C] ff [km/h] ff [knt] fx [km/h] fx [knt] dd ppp [hPa] vv [km] sd [min] rr [mm]
28.05.2018 11:00:00 17,5 16,0 17,1 20,0 16,9 4 2 11 6 NW 1014,8 12 0 0,2
28.05.2018 10:00:00 17,5 15,8 17,6 20,0 17,0 3 1 6 3 NW 1015,0 15 0 0,0
28.05.2018 09:00:00 17,1 15,8 17,0 20,1 16,9 4 2 8 5 E 1014,9 11 0 0,0
28.05.2018 08:00:00 16,8 15,7 16,4 20,2 16,9 0 0 9 5 N 1014,6 10 0 0,0
28.05.2018 07:00:00 16,6 15,5 15,9 20,3 16,9 3 2 6 3 NW 1014,4 11 0 0,0
28.05.2018 06:00:00 16,4 15,3 15,7 20,4 16,9 4 2 6 3 NE 1014,2 20 0 0,0
28.05.2018 05:00:00 16,0 15,2 14,7 20,5 16,9 0 0 5 3 N 1014,1 20 0 0,0
28.05.2018 04:00:00 15,3 14,5 12,9 20,5 16,9 2 1 4 2 SSE 1014,3 11 0 0,0
28.05.2018 03:00:00 16,0 15,0 13,2 20,6 16,9 0 0 8 4 N 1014,5 20 0 0,2
28.05.2018 02:00:00 16,0 14,9 14,5 20,7 16,9 5 3 7 4 ESE 1015,0 20 0 0,0
28.05.2018 01:00:00 16,5 15,0 14,4 20,7 16,9 0 0 12 6 N 1015,2 20 0 0,0
28.05.2018 00:00:00 17,2 15,5 16,2 20,8 16,9 8 4 24 13 SSE 1015,7 12 0 0,4
27.05.2018 23:00:00 18,7 15,6 17,9 20,8 16,9 10 6 19 10 SSW 1015,5 20 0 0,0
27.05.2018 22:00:00 19,0 15,1 18,2 20,8 16,9 12 6 31 17 S 1015,0 20 0 0,0
27.05.2018 21:00:00 20,2 15,4 19,5 20,7 16,9 15 8 42 23 SW 1014,4 20 0 0,0
27.05.2018 20:00:00 24,3 15,0 23,2 20,5 16,9 11 6 24 13 N 1013,0 20 20 0,0
27.05.2018 19:00:00 25,7 15,4 27,0 20,4 16,9 11 6 21 12 NNW 1011,9 20 37 0,0
27.05.2018 18:00:00 26,1 15,5 28,7 20,2 16,9 9 5 16 9 WNW 1012,2 20 42 0,0
27.05.2018 17:00:00 26,1 14,5 26,3 20,0 16,9 4 2 13 7 S 1012,5 20 20 0,0
27.05.2018 16:00:00 26,0 13,8 29,5 19,8 16,8 9 5 16 9 E 1013,1 20 42 0,0
27.05.2018 15:00:00 24,8 14,3 25,8 19,6 16,8 6 4 11 6 ENE 1014,3 20 7 0,0
27.05.2018 14:00:00 23,9 13,7 29,0 19,5 16,8 7 4 20 11 SE 1014,4 20 23 0,0
27.05.2018 13:00:00 24,7 14,5 31,8 19,4 16,8 7 4 16 9 ESE 1014,3 20 60 0,0
27.05.2018 12:00:00 23,4 15,2 26,1 19,3 16,8 3 2 14 8 N 1014,7 20 35 0,0
27.05.2018 11:00:00 21,4 15,0 23,3 19,3 16,8 5 3 11 6 SSW 1014,9 18 17 0,2
27.05.2018 10:00:00 19,9 14,9 - - - 0 0 5 3 N 1015,0 16 - 0,0
27.05.2018 09:00:00 18,8 14,1 19,3 19,4 16,8 2 1 6 4 NNE 1015,1 20 46 0,0
27.05.2018 08:00:00 16,5 13,2 15,1 19,5 16,8 0 0 10 5 N 1015,0 20 7 0,0
27.05.2018 07:00:00 15,9 12,3 14,7 19,6 16,8 5 3 9 5 E 1014,9 20 0 0,0
27.05.2018 06:00:00 16,8 14,4 14,9 19,7 16,8 2 1 12 7 SE 1014,4 17 0 0,0
27.05.2018 05:00:00 17,2 14,7 15,9 19,7 16,8 9 5 15 8 SSE 1014,3 19 0 0,0
27.05.2018 04:00:00 17,6 13,5 16,1 19,8 16,8 9 5 18 10 SSE 1014,5 20 0 0,0
27.05.2018 03:00:00 18,4 12,6 15,9 19,9 16,8 13 7 20 11 SE 1014,5 20 0 0,0
27.05.2018 02:00:00 19,7 11,7 14,3 20,0 16,8 11 6 23 12 S 1014,8 20 0 0,0
27.05.2018 01:00:00 18,0 11,8 13,6 20,0 16,8 4 2 10 5 SSE 1014,8 20 0 0,0
27.05.2018 00:00:00 17,5 11,7 13,9 20,0 16,7 4 2 11 6 SSW 1014,7 20 0 0,0
26.05.2018 23:00:00 20,0 11,0 15,4 20,1 16,8 3 1 8 4 NNW 1014,6 20 0 0,0
26.05.2018 22:00:00 22,1 9,3 17,5 20,1 16,7 2 1 28 15 E 1013,4 18 0 0,0
26.05.2018 21:00:00 23,5 9,5 21,6 20,0 16,8 13 7 31 17 ESE 1011,6 20 0 0,0
26.05.2018 20:00:00 25,1 9,4 24,1 19,9 16,7 16 9 29 15 SE 1012,1 20 46 0,0
26.05.2018 19:00:00 26,8 7,8 29,4 19,8 16,7 16 8 37 20 SSE 1011,7 20 60 0,0
26.05.2018 18:00:00 26,8 9,6 27,7 19,8 16,7 18 10 33 18 SSE 1011,8 20 40 0,0
26.05.2018 17:00:00 26,5 8,9 28,0 19,7 16,7 18 10 35 19 SSE 1012,2 20 20 0,0
26.05.2018 16:00:00 26,8 10,1 27,6 19,6 16,7 18 10 54 29 SE 1012,3 20 37 0,0
26.05.2018 15:00:00 27,2 11,2 28,2 19,5 16,7 37 20 60 33 SSE 1011,8 20 45 0,0
26.05.2018 14:00:00 26,7 12,0 24,5 19,4 16,6 33 18 56 30 SSE 1011,7 20 19 0,0
26.05.2018 13:00:00 24,6 10,5 24,7 19,3 16,6 33 18 58 31 SSE 1011,2 20 23 0,0
26.05.2018 12:00:00 26,1 11,4 26,9 19,3 16,6 24 13 53 29 SSE 1011,5 20 51 0,0
26.05.2018 11:00:00 24,1 13,6 29,2 19,3 16,6 12 7 31 17 S 1012,0 20 60 0,0
26.05.2018 10:00:00 21,4 14,1 27,0 19,4 16,6 2 1 9 5 WSW 1012,6 20 60 0,0
26.05.2018 09:00:00 20,5 12,2 19,5 19,5 16,6 0 0 10 5 N 1012,7 20 60 0,0
26.05.2018 08:00:00 15,6 11,0 10,5 19,6 16,6 4 2 6 4 E 1013,5 20 39 0,0
26.05.2018 07:00:00 12,0 9,7 10,1 19,7 16,6 2 1 7 4 S 1013,2 20 0 0,0
26.05.2018 06:00:00 12,4 9,9 10,3 19,9 16,6 5 3 8 4 E 1012,9 20 0 0,0
26.05.2018 05:00:00 13,2 10,6 10,2 20,0 16,6 0 0 4 2 N 1013,1 20 0 0,0
26.05.2018 04:00:00 13,2 10,4 10,1 20,1 16,6 0 0 4 2 N 1012,7 20 0 0,0
26.05.2018 03:00:00 13,7 10,1 10,8 20,2 16,6 0 0 5 3 N 1012,5 20 0 0,0
26.05.2018 02:00:00 15,0 10,6 - - - 0 0 4 2 N 1012,8 20 - -
26.05.2018 01:00:00 15,9 10,9 11,9 20,3 16,6 2 1 5 3 S 1012,7 20 0 0,0
26.05.2018 00:00:00 17,0 10,6 13,0 20,3 16,5 2 1 6 4 S 1012,8 20 0 0,0
25.05.2018 23:00:00 18,9 11,0 14,6 20,4 16,6 5 3 8 4 E 1012,7 20 0 0,0
25.05.2018 22:00:00 21,6 9,2 16,6 20,2 16,5 4 2 12 6 E 1012,4 8 0 0,0
25.05.2018 21:00:00 22,7 11,4 20,8 20,2 16,5 8 5 13 7 SSE 1012,0 20 44 0,0
25.05.2018 20:00:00 24,4 15,9 25,2 20,0 16,5 2 1 10 6 ENE 1011,7 20 36 0,0
25.05.2018 19:00:00 23,9 15,9 24,9 19,9 16,5 6 4 16 9 N 1011,5 20 12 0,0
25.05.2018 18:00:00 24,1 15,8 29,6 19,8 16,5 9 5 18 10 NNE 1011,9 20 60 0,0
25.05.2018 17:00:00 23,7 15,2 28,0 19,7 16,5 6 4 15 8 ENE 1012,8 20 51 0,0
25.05.2018 16:00:00 22,6 16,2 25,8 19,7 16,5 4 2 16 9 S 1013,4 20 30 0,0
25.05.2018 15:00:00 20,7 15,3 19,2 19,7 16,4 6 3 14 7 SE 1014,1 20 0 0,2
25.05.2018 14:00:00 19,7 15,1 19,9 19,7 16,4 7 4 21 12 ENE 1014,3 20 0 0,0
25.05.2018 13:00:00 19,7 14,9 20,2 19,7 16,4 15 8 29 16 SSE 1015,2 20 0 0,0
25.05.2018 12:00:00 20,1 14,9 20,9 19,7 16,4 10 5 23 13 S 1015,8 20 0 0,0
25.05.2018 11:00:00 20,1 15,3 21,9 19,7 16,4 7 4 16 8 SSW 1016,1 19 13 0,0
25.05.2018 10:00:00 19,0 15,9 20,7 19,8 16,4 6 3 12 6 WSW 1015,3 14 7 0,0
25.05.2018 09:00:00 17,9 15,5 17,6 19,9 16,4 6 4 13 7 S 1014,9 13 32 0,0
25.05.2018 08:00:00 16,3 14,8 14,4 20,0 16,4 4 2 5 3 E 1014,9 6 34 0,0
25.05.2018 07:00:00 15,3 14,5 11,3 20,1 16,4 0 0 5 3 N 1015,1 8 17 0,0
25.05.2018 06:00:00 14,7 13,7 11,9 20,2 16,4 5 3 6 3 SSE 1014,9 4,7 0 0,0
25.05.2018 05:00:00 15,1 14,0 12,1 20,4 16,4 0 0 3 2 N 1014,9 8 0 0,0
25.05.2018 04:00:00 15,7 14,6 13,2 20,4 16,4 0 0 5 3 N 1015,1 7 0 0,0
25.05.2018 03:00:00 16,7 14,9 13,7 20,5 16,3 3 2 6 3 ESE 1015,4 8 0 0,0
25.05.2018 02:00:00 18,0 15,6 14,3 20,6 16,3 3 2 9 5 WSW 1015,6 17 0 0,0
25.05.2018 01:00:00 18,2 15,4 14,9 20,7 16,3 4 2 10 5 S 1015,8 20 0 0,0
25.05.2018 00:00:00 18,1 15,0 15,4 20,7 16,3 7 4 11 6 SSE 1015,9 20 0 0,0
24.05.2018 23:00:00 19,0 15,3 15,8 20,7 16,3 0 0 3 2 N 1015,7 20 0 0,0
24.05.2018 22:00:00 21,7 15,3 17,4 20,6 16,3 3 2 6 3 NNE 1015,1 8 0 0,0
24.05.2018 21:00:00 23,8 14,5 21,4 20,5 16,3 4 2 8 5 NNW 1014,7 20 0 0,0
24.05.2018 20:00:00 24,8 14,0 25,9 20,4 16,3 3 2 11 6 SSE 1014,6 20 50 0,0
24.05.2018 19:00:00 25,3 14,1 30,7 20,2 16,2 5 3 10 5 SE 1014,9 20 60 0,0
24.05.2018 18:00:00 25,2 14,3 30,5 20,1 16,2 4 2 17 9 S 1014,9 20 58 0,0
24.05.2018 17:00:00 25,2 14,0 30,0 20,0 16,2 6 4 14 8 N 1015,1 20 54 0,0
24.05.2018 16:00:00 24,2 14,3 28,9 19,9 16,2 0 0 14 8 N 1015,7 20 37 0,0
24.05.2018 15:00:00 22,9 15,5 23,7 19,8 16,2 4 2 11 6 NNE 1016,2 20 0 0,0
24.05.2018 14:00:00 21,7 15,1 24,7 19,8 16,2 4 2 14 8 N 1016,6 20 0 0,0
24.05.2018 13:00:00 20,9 16,1 22,2 19,8 16,2 6 4 16 9 NW 1017,2 19 0 0,0
24.05.2018 12:00:00 20,6 15,8 20,8 19,8 16,1 7 4 15 8 WNW 1017,5 20 6 0,0
24.05.2018 11:00:00 19,7 15,3 21,1 19,8 16,1 6 4 13 7 WSW 1017,3 20 0 0,0
24.05.2018 10:00:00 19,5 14,7 21,7 19,9 16,1 4 2 15 8 SSE 1017,1 16 30 0,0
24.05.2018 09:00:00 19,2 15,1 21,3 20,0 16,1 8 4 14 7 S 1017,2 20 60 0,0
24.05.2018 08:00:00 17,8 14,7 15,6 20,1 16,1 4 2 8 4 ESE 1016,8 20 53 0,0
24.05.2018 07:00:00 15,2 13,7 12,7 20,2 16,1 5 3 8 5 SSE 1016,7 20 13 0,0
24.05.2018 06:00:00 15,2 13,6 13,0 20,3 16,1 4 2 8 4 E 1016,5 20 0 0,0
24.05.2018 05:00:00 15,7 13,7 12,7 20,4 16,1 4 2 8 4 ENE 1016,4 20 0 0,0
24.05.2018 04:00:00 16,6 13,9 14,4 20,5 16,1 4 2 7 4 E 1016,4 20 0 0,0
24.05.2018 03:00:00 17,1 13,8 14,4 20,6 16,0 3 2 6 3 E 1016,7 20 0 0,0
24.05.2018 02:00:00 18,0 13,7 14,8 20,7 16,0 3 2 8 5 SSE 1016,8 20 0 0,0
24.05.2018 01:00:00 18,7 13,5 15,6 20,7 16,0 6 3 14 8 S 1017,0 20 0 0,0
24.05.2018 00:00:00 18,4 13,3 15,7 20,8 16,0 5 3 11 6 SW 1016,9 20 0 0,0
23.05.2018 23:00:00 19,8 13,5 16,9 20,8 16,0 0 0 4 2 N 1016,7 20 0 0,0
23.05.2018 22:00:00 19,8 12,8 17,4 20,8 16,0 2 1 8 4 S 1016,4 20 0 0,0
23.05.2018 21:00:00 23,1 10,5 19,6 20,7 16,0 3 2 11 6 NW 1015,7 20 0 0,0
23.05.2018 20:00:00 24,0 9,9 22,8 20,5 16,0 8 5 13 7 WNW 1015,5 20 17 0,0
23.05.2018 19:00:00 25,2 7,8 25,6 20,3 16,0 8 4 16 9 WNW 1015,1 20 33 0,0
23.05.2018 18:00:00 25,8 8,7 30,7 20,0 15,9 11 6 21 11 NW 1015,3 20 60 0,0
23.05.2018 17:00:00 26,4 11,3 31,8 19,8 15,9 3 2 19 10 NW 1015,1 20 60 0,0
23.05.2018 16:00:00 25,6 9,0 32,4 19,6 15,9 9 5 17 9 WNW 1015,8 20 60 0,0
23.05.2018 15:00:00 24,8 13,0 26,5 19,4 15,9 6 3 16 9 N 1016,4 20 49 0,0
23.05.2018 14:00:00 24,3 7,9 27,2 19,2 15,9 10 5 19 10 NNW 1017,1 20 58 0,0
23.05.2018 13:00:00 23,5 11,5 29,3 19,1 15,9 4 2 14 8 N 1017,5 19 60 0,0
23.05.2018 12:00:00 22,7 15,0 27,4 19,1 15,9 5 3 14 7 W 1017,7 20 60 0,0
23.05.2018 11:00:00 20,9 15,0 25,3 19,1 15,8 2 1 15 8 N 1017,9 20 60 0,0
23.05.2018 10:00:00 18,7 14,6 23,0 19,2 15,8 6 3 11 6 NW 1017,8 20 60 0,0
23.05.2018 09:00:00 17,1 13,6 20,5 19,3 15,8 4 2 9 5 WNW 1017,8 20 60 0,0
23.05.2018 08:00:00 15,5 13,3 11,6 19,5 15,8 0 0 6 3 N 1017,5 20 54 0,0
23.05.2018 07:00:00 12,5 11,4 - - - 4 2 8 4 S 1016,9 15 - 0,0
23.05.2018 06:00:00 13,7 12,1 10,2 19,7 15,8 0 0 10 5 N 1016,7 20 0 0,0
23.05.2018 05:00:00 14,7 12,4 11,5 19,8 15,8 0 0 9 5 N 1016,4 20 0 0,0
23.05.2018 04:00:00 15,3 12,6 13,3 19,9 15,7 5 3 11 6 WSW 1016,4 20 0 0,0
23.05.2018 03:00:00 15,7 12,6 11,5 20,0 15,7 4 2 9 5 SW 1016,5 20 0 0,0
23.05.2018 02:00:00 15,0 12,9 11,8 20,1 15,7 0 0 4 2 N 1016,6 20 0 0,0
23.05.2018 01:00:00 15,5 13,0 12,4 20,2 15,7 3 1 5 3 S 1016,6 20 0 0,0
23.05.2018 00:00:00 16,9 12,8 12,3 20,2 15,7 0 0 7 4 N 1016,3 20 0 0,0
22.05.2018 23:00:00 18,5 12,9 15,9 20,2 15,7 6 3 24 13 WNW 1016,0 20 0 0,0
22.05.2018 22:00:00 20,3 13,3 18,6 20,2 15,7 14 8 24 13 WNW 1015,3 20 0 0,0
22.05.2018 21:00:00 22,0 12,8 20,6 20,1 15,7 11 6 18 10 W 1014,6 20 55 0,0
22.05.2018 20:00:00 23,5 11,5 23,2 19,9 15,6 5 3 23 12 W 1014,0 20 57 0,0
22.05.2018 19:00:00 24,2 11,2 23,4 19,8 15,6 10 5 18 10 W 1013,6 20 39 0,0
22.05.2018 18:00:00 24,5 10,0 28,8 19,6 15,6 7 4 21 11 WNW 1013,5 20 60 0,0
22.05.2018 17:00:00 24,2 10,8 26,9 19,3 15,6 7 4 21 11 WNW 1013,5 20 57 0,0
22.05.2018 16:00:00 23,7 11,1 25,4 19,1 15,6 10 5 19 10 W 1013,7 20 56 0,0
22.05.2018 15:00:00 23,0 12,6 28,1 18,9 15,6 8 5 22 12 WNW 1014,3 20 58 0,0
22.05.2018 14:00:00 22,1 12,4 23,7 18,8 15,6 12 6 20 11 W 1014,6 20 54 0,0
22.05.2018 13:00:00 21,0 13,4 21,8 18,8 15,6 8 5 18 10 NW 1014,9 20 45 0,0
22.05.2018 12:00:00 20,2 14,3 22,5 18,7 15,5 4 2 15 8 WNW 1015,0 20 32 0,0
22.05.2018 11:00:00 18,5 14,6 22,8 18,8 15,5 9 5 15 8 W 1015,0 20 38 0,2

tt = Température de l'air
td = dewpoint
tt 5cm = Température de l'air 5cm
tt -20cm = Température de l'air -20cm
tt -100cm = Température de l'air -100cm
ff = Vitesse du vent
fx = gusts
dd = Direction du vent
ppp = reduced air pressure
vv = visibility
sd = Ensoleillement
rr = Quantités de précipitations

stations d'obs. à proximité